Location: Bakov nad Jizerou
(50.4784°N, 14.9394°E)
Time: 08:43:56
(UTC+00:00)

Cosmos 1536 Rocket - Pass Details

Date: 19 October 2021
Orbit: 605 x 633 km, 82.5° (Epoch: 28 November)

Event Time Altitude Azimuth Distance (km) Brightness Sun altitude
Rises 04:41:22 0° 166° (SSE) 2,899 7.3 -8.4°
Reaches altitude 10° 04:43:42 10° 158° (SSE) 1,993 6.6 -8.0°
Maximum altitude 04:47:45 37° 92° (E) 980 5.4 -7.3°
Drops below altitude 10° 04:51:48 10° 25° (NNE) 1,992 6.4 -6.7°
Sets 04:54:09 0° 17° (NNE) 2,898 7.1 -6.3°
